AO-07 1 07530U 74089B 24221.89456543 -.00000038 00000-0 54723-4 0 9995 2 07530 101.9812 217.0408 0012179 345.7544 74.4105 12.53677692275882 UO-11 1 14781U 84021B 24221.85065217 .00003924 00000-0 44382-3 0 9993 2 14781 97.7088 189.5611 0006331 261.1481 98.9019 14.87010406177315 AO-27 1 22825U 93061C 24221.71610892 .00000382 00000-0 16404-3 0 9994 2 22825 98.7849 275.0306 0007322 287.4317 72.6064 14.30538388610392 FO-29 1 24278U 96046B 24221.76438628 .00000098 00000-0 13315-3 0 9996 2 24278 98.5793 149.5242 0351010 52.1727 311.0640 13.53196800381796 NOAA-15 1 25338U 98030A 24221.83816819 .00000562 00000-0 25011-3 0 9991 2 25338 98.5668 247.8617 0010664 164.6667 195.4838 14.26652187364949 GO-32 1 25397U 98043D 24221.86266433 .00000324 00000-0 16080-3 0 9996 2 25397 98.9258 189.3834 0001846 43.8290 316.3035 14.24083658355139 ISS 1 25544U 98067A 24221.81537062 .00022031 00000-0 39570-3 0 9998 2 25544 51.6391 54.6103 0005816 179.0094 181.0908 15.49787013466712 NO-44 1 26931U 01043C 24221.40595660 .00000677 00000-0 28668-3 0 9998 2 26931 67.0494 196.6415 0007786 273.2158 86.8053 14.31300270193588 SO-50 1 27607U 02058C 24221.86888297 .00003775 00000-0 52181-3 0 9996 2 27607 64.5548 59.5842 0025470 83.9923 276.4083 14.79290369164327 CO-55 1 27844U 03031E 24221.60340381 .00001015 00000-0 46665-3 0 9995 2 27844 98.6780 227.9054 0009692 0.6982 359.4208 14.23356010 95274 CO-57 1 27848U 03031J 24221.76935369 .00000872 00000-0 40825-3 0 9994 2 27848 98.6812 228.2840 0009930 16.0542 344.0949 14.22784459 95069 RS-22 1 27939U 03042A 24221.90513341 .00003831 00000-0 64360-3 0 9993 2 27939 98.2977 18.9636 0010864 251.9679 228.3445 14.70222193116024 NOAA-18 1 28654U 05018A 24221.81110811 .00000521 00000-0 30123-3 0 9991 2 28654 98.8726 298.3364 0013152 273.8974 86.0695 14.13274752990697 CO-58 1 28895U 05043F 24221.86468614 .00005104 00000-0 89600-3 0 9994 2 28895 98.2089 357.7962 0015495 187.1988 172.8996 14.68063238 2415 CO-65 1 32785U 08021C 24221.88453880 .00010149 00000-0 87376-3 0 9990 2 32785 97.7584 186.8078 0011934 142.6241 217.5813 14.97500909883430 AAUSAT2 1 32788U 08021F 24221.88052749 .00042748 00000-0 19537-2 0 9995 2 32788 97.5970 202.3841 0004689 32.6882 327.4643 15.20418025886428 CO-66 1 32791U 08021J 24220.87934763 .00016033 00000-0 11285-2 0 9992 2 32791 97.6929 191.8108 0007262 123.5108 236.6813 15.05110297884371 RS-30 1 32953U 08025A 24221.78642837 .00000019 00000-0 66680-4 0 9993 2 32953 82.4999 56.7624 0019455 352.9343 7.1460 12.43144828735660 PRISM 1 33493U 09002B 24221.69001669 .00041519 00000-0 17871-2 0 9997 2 33493 98.2003 273.9445 0011827 74.4472 285.8067 15.22428265847032 NOAA-19 1 33591U 09005A 24221.91167878 .00000492 00000-0 28789-3 0 9995 2 33591 99.0436 278.2603 0014555 140.9482 219.2743 14.13068868799075 SRMSAT 1 37841U 11058D 24221.39225674 .00000731 00000-0 25492-3 0 9993 2 37841 19.9703 201.0239 0011608 309.0366 208.4171 14.11157633662160 RS-40 1 38735U 12041C 24221.51248835 .00000056 00000-0 33490-3 0 9994 2 38735 82.4780 137.2706 0018359 102.5822 257.7312 12.42612874545670 ZACUBE-1 1 39417U 13066B 24221.85144094 .00010805 00000-0 10994-2 0 9995 2 39417 97.7372 176.6695 0049370 348.7313 11.2795 14.90014161579422 Delfi-N3xt 1 39428U 13066N 24221.77949804 .00012932 00000-0 16117-2 0 9996 2 39428 97.8342 138.7536 0097030 278.2856 80.7362 14.79253650574049 GOMX-1 1 39430U 13066Q 24221.87014913 .00005662 00000-0 93058-3 0 9996 2 39430 97.7247 93.0575 0140879 85.3577 276.3701 14.64531627570759 LO-74 1 39440U 13066AA 24221.84998121 .00009212 00000-0 10651-2 0 9998 2 39440 97.8142 164.4061 0071066 101.6964 259.2236 14.83937490577345 AO-73 1 39444U 13066AE 24221.83943693 .00015305 00000-0 14414-2 0 9996 2 39444 97.7229 179.9240 0045584 328.4383 31.4104 14.93129970578559 SPROUT 1 39770U 14029E 24220.75776236 .01844035 18802-2 54360-2 0 9991 2 39770 97.9952 20.0840 0018048 291.3898 68.5448 15.92786363555701 DTUSAT-2 1 40030U 14033W 24221.28953245 .00012887 00000-0 10576-2 0 9994 2 40030 98.0109 175.1442 0008489 3.3684 356.7593 14.99326539550507 EO-80 1 40032U 14033Y 24221.85714131 .00012984 00000-0 10638-2 0 9995 2 40032 98.0077 175.7391 0009254 343.1524 16.9389 14.99385388551080 XW-2C 1 40906U 15049H 24221.79852521 .00053884 00000-0 10820-2 0 9999 2 40906 97.4758 240.1128 0010225 113.0179 247.2150 15.46439216492592 XW-2D 1 40907U 15049J 24221.84792781 .00093326 00000-0 13059-2 0 9999 2 40907 97.4690 243.3360 0008869 107.9191 252.3032 15.56453416492874 LILACSAT-2 1 40908U 15049K 24221.81675079 .00016165 00000-0 60023-3 0 9997 2 40908 97.5241 230.9481 0013152 156.4885 203.6958 15.27568702491524 XW-2B 1 40911U 15049N 24221.77556813 .00087101 00000-0 12684-2 0 9997 2 40911 97.4664 243.2658 0008926 110.7661 249.4551 15.55390225492721 IO-86 1 40931U 15052B 24221.37966096 .00001973 00000-0 17924-3 0 9993 2 40931 6.0014 339.7610 0012195 102.5696 257.5796 14.77979400479308 ChubuSat-2 1 41338U 16012B 24221.87987121 .00010564 00000-0 64429-3 0 9997 2 41338 31.0012 51.4863 0011453 43.3470 316.8067 15.09044707465564 ChubuSat-3 1 41339U 16012C 24221.84458379 .00009632 00000-0 59777-3 0 9997 2 41339 31.0080 50.5410 0011403 47.1889 312.9706 15.08386947465537 Horyu-4 1 41340U 16012D 24221.44121117 .00022282 00000-0 10583-2 0 9999 2 41340 31.0033 354.6559 0009556 138.2141 221.9231 15.18031384466095 Lapan A3 1 41603U 16040E 24221.84871915 .00006691 00000-0 26452-3 0 9993 2 41603 97.1420 233.1991 0009867 274.9639 85.0473 15.25750819451254 Pratham 1 41783U 16059A 24221.58630937 .00001931 00000-0 36579-3 0 9993 2 41783 97.8359 238.4660 0031631 212.0388 147.8894 14.65063225420217 CAS-2T 1 41847U 16066G 24221.30104031 .00002553 00000-0 37829-3 0 9993 2 41847 98.4577 292.2119 0353375 20.6014 340.9023 14.41559729407000 CAS-4B 1 42759U 17034B 24221.62530118 .00027394 00000-0 91670-3 0 9990 2 42759 43.0164 289.7416 0012682 333.9397 26.0817 15.30387868395437 CAS-4A 1 42761U 17034D 24221.62270285 .00027788 00000-0 92667-3 0 9993 2 42761 43.0203 288.0710 0011638 344.8910 15.1594 15.30505687395448 Aalto 1 1 42775U 17036L 24221.61351877 .00340703 00000-0 13333-2 0 9993 2 42775 97.0916 252.4716 0002028 151.6296 208.5086 15.86148345397360 D-SAT 1 42794U 17036AF 24221.85888080 .00014477 00000-0 98833-3 0 9996 2 42794 97.4818 201.8489 0105662 330.5929 28.9375 15.01774971388654 TechnoSat 1 42829U 17042E 24221.59156864 .00007103 00000-0 61901-3 0 9995 2 42829 97.3875 39.7446 0010654 255.4438 104.5603 14.97126587385012 AO-91 1 43017U 17073E 24221.63545673 .00014232 00000-0 85700-3 0 9998 2 43017 97.5696 95.2893 0208549 118.0309 244.2178 14.94444183363490 TianYi 2 1 43155U 18008A 24220.86405673 .00507396 00000-0 21378-2 0 9997 2 43155 97.2220 276.6348 0008763 224.2370 135.8201 15.84159423363017 TianYi 6 1 43158U 18008D 24221.70459293 .00119492 00000-0 17100-2 0 9995 2 43158 97.2517 270.7419 0006076 226.1955 133.8798 15.55773347362617 S-Net D 1 43186U 18014G 24221.78023594 .00009328 00000-0 65538-3 0 9997 2 43186 97.5846 122.7075 0010452 174.8287 185.3050 15.05287667356414 S-Net B 1 43187U 18014H 24221.71629229 .00008934 00000-0 62800-3 0 9999 2 43187 97.5853 122.5980 0011396 171.5341 188.6080 15.05277419356401 S-Net A 1 43188U 18014J 24221.71486506 .00008903 00000-0 62567-3 0 9995 2 43188 97.5858 122.7137 0011265 172.0905 188.0501 15.05287081356408 S-Net C 1 43189U 18014K 24221.71837067 .00008932 00000-0 62750-3 0 9994 2 43189 97.5875 122.6752 0013228 166.6607 193.4972 15.05277709354955 Ten-Koh 1 43677U 18084G 24221.83856402 .00007255 00000-0 64256-3 0 9990 2 43677 98.0689 16.9487 0013743 198.3048 161.7680 14.96502537314598 PO-101 1 43678U 18084H 24221.86674278 .00004825 00000-0 43994-3 0 9999 2 43678 98.0786 21.4229 0008236 208.2850 151.7924 14.95591220314793 QO-100 1 43700U 18090A 24221.68117772 .00000147 00000-0 00000+0 0 9993 2 43700 0.0173 111.5446 0002528 59.7242 57.4478 1.00273249 21124 MinXSS-2 1 43758U 18099A 24221.72697905 .00020751 00000-0 12581-2 0 9994 2 43758 97.5497 283.3189 0017455 136.3400 223.9214 15.10454598310710 AO-95 1 43770U 18099N 24221.71753774 .00015600 00000-0 10461-2 0 9996 2 43770 97.5406 278.4670 0013893 178.7247 181.4018 15.06862184310477 RANGE-B 1 43772U 18099Q 24221.71739612 .00023433 00000-0 13811-2 0 9998 2 43772 97.5201 282.1441 0006260 93.9659 266.2287 15.11566577310658 RANGE-A 1 43773U 18099R 24221.71015045 .00009012 00000-0 67172-3 0 9993 2 43773 97.4944 273.2699 0013538 150.7581 209.4405 15.03038460310321 MOVE-II 1 43780U 18099Y 24221.72725028 .00038340 00000-0 18541-2 0 9992 2 43780 97.5169 284.3099 0007481 151.5698 208.5946 15.18473015310891 SNUSat 2 1 43782U 18099AA 24221.69733560 .00013807 00000-0 94964-3 0 9995 2 43782 97.5097 277.3109 0015861 121.9888 238.2883 15.05920244310471 SnugLite 1 43784U 18099AC 24221.73895490 .00013849 00000-0 92312-3 0 9994 2 43784 97.4910 276.6647 0006123 124.8332 235.3473 15.07172729310553 ITASat 1 1 43786U 18099AE 24221.66262213 .00010938 00000-0 76958-3 0 9993 2 43786 97.5051 277.4641 0017661 169.1351 191.0261 15.05108521310467 EAGLET 1 1 43790U 18099AJ 24221.89594805 .00009454 00000-0 69587-3 0 9999 2 43790 97.5260 278.1793 0014716 146.6294 213.5862 15.03489384310198 ESEO 1 43792U 18099AL 24221.71106703 .00004823 00000-0 39158-3 0 9994 2 43792 97.5177 274.5257 0011731 133.3235 226.8969 15.00024300310076 CSIM 1 43793U 18099AM 24221.72470234 .00038626 00000-0 18818-2 0 9996 2 43793 97.5259 286.0654 0013108 130.6596 229.5779 15.18162223310746 JO-97 1 43803U 18099AX 24221.72133553 .00017468 00000-0 11177-2 0 9990 2 43803 97.5152 279.2536 0011009 121.8546 238.3756 15.08596669310611 Suomi 100 1 43804U 18099AY 24221.73504934 .00015456 00000-0 10119-2 0 9997 2 43804 97.5225 279.0503 0017008 121.0173 239.2728 15.07710602310598 ISAT 1 43879U 18111D 24221.71807560 .00019154 00000-0 11144-2 0 9991 2 43879 97.6128 127.2086 0013276 168.4616 191.6921 15.12020472305330 UWE-4 1 43880U 18111E 24221.73989921 .00018340 00000-0 10996-2 0 9997 2 43880 97.6057 127.1130 0016324 180.1723 179.9504 15.10903733305366 Sparrow 1 43881U 18111F 24221.73701340 .00020944 00000-0 12004-2 0 9990 2 43881 97.6225 129.2317 0008847 205.3673 154.7124 15.12583201305421 Prox-1 1 44339U 19036A 24220.51801930 .00014333 00000-0 23982-2 0 9999 2 44339 23.9986 254.8848 0008647 206.6412 153.3639 14.68136297272791 SONATE 1 44400U 19038Q 24221.79527520 .00037334 00000-0 10320-2 0 9999 2 44400 97.7140 218.3442 0012219 276.9229 83.0624 15.36867933282150 Taurus 1 1 44530U 19059C 24221.81695160 .00014533 00000-0 32853-2 0 9996 2 44530 98.5804 343.4213 0010838 248.7612 111.2427 14.56278317259426 Duchifat 3 1 44854U 19089C 24221.83325735 .00028562 00000-0 13553-2 0 9991 2 44854 36.9559 88.9065 0004612 202.9487 157.1055 15.18448061256202 TO-108 1 44881U 19093C 24221.84142584 .00002905 00000-0 35495-3 0 9999 2 44881 97.8257 297.6099 0015151 146.3436 213.8744 14.83954261250859 FloripaSat 1 1 44885U 19093G 24221.77667668 .00011917 00000-0 12064-2 0 9999 2 44885 97.8392 303.9735 0013486 138.4201 221.8045 14.91041887251205 RS-44 1 44909U 19096E 24221.64899765 .00000022 00000-0 50301-4 0 9993 2 44909 82.5181 69.9115 0216499 288.6751 69.0959 12.79732616215732 BY70-2 1 45857U 20042B 24221.80091882 .00928104 00000-0 95888-2 0 9998 2 45857 97.8953 319.7696 0011610 283.2806 76.7155 15.62192844222662 UPMSat 2 1 46276U 20061E 24221.90148674 .00030408 00000-0 86366-3 0 9991 2 46276 97.2928 287.6005 0000338 101.7829 258.3453 15.36135165218269 AmicalSat 1 46287U 20061R 24221.76397883 .00061294 00000-0 14445-2 0 9990 2 46287 97.3436 289.1888 0001562 79.8428 280.2996 15.41706982217657 SALSAT 1 46495U 20068K 24221.83163291 .00012663 00000-0 69777-3 0 9995 2 46495 97.8200 182.4901 0015460 128.6069 231.6549 15.14047568212274 UVSQ-SAT 1 47438U 21006AB 24221.72850756 .00114627 00000-0 16375-2 0 9991 2 47438 97.3197 283.1856 0003090 29.9842 330.1589 15.55852215196883 SOMP 2b 1 47445U 21006AJ 24221.72648812 .00092211 00000-0 15580-2 0 9998 2 47445 97.3154 281.1589 0004687 46.8644 313.3000 15.51277239196789 IDEASSat 1 47458U 21006AX 24221.74606791 .00075916 00000-0 14654-2 0 9998 2 47458 97.3273 281.5308 0004992 47.5185 312.6486 15.47533952196709 CubeSX-Sirius-HSE 1 47951U 21022V 24221.86401537 .00035490 00000-0 12822-2 0 9996 2 47951 97.4525 120.1684 0011145 319.8319 40.2095 15.28325853186612 CubeSX-HSE 1 47952U 21022W 24221.87884041 .00036888 00000-0 13276-2 0 9999 2 47952 97.4525 120.2850 0011056 318.7853 41.2551 15.28444154186626 KSU-Cubesat 1 47954U 21022Y 24221.69034302 .00045788 00000-0 14741-2 0 9995 2 47954 97.4532 121.6811 0009381 314.0626 45.9843 15.32029461186410 GRBAlpha 1 47959U 21022AD 24221.83990747 .00035709 00000-0 12820-2 0 9998 2 47959 97.4527 120.4048 0010877 319.4513 40.5916 15.28534116185441 Orbicraft-Zorkiy 1 47960U 21022AE 24221.82523592 .00043330 00000-0 14442-2 0 9990 2 47960 97.4568 121.8724 0009592 316.5194 43.5289 15.30923527186201 STECCO 1 47962U 21022AG 24221.55290891 .01051457 50919-3 27709-2 0 9992 2 47962 97.4401 134.7236 0010171 157.7630 202.4088 15.94768653186351 TUBIN 1 48900U 21059X 24221.86166846 .00028435 00000-0 91324-3 0 9998 2 48900 97.6526 8.1246 0005953 256.5561 103.5017 15.32240217172982 LEDSAT 1 49069U 21073D 24221.91298636 .00032552 00000-0 12199-2 0 9997 2 49069 97.4336 292.7581 0019481 99.0727 261.2717 15.27015711164493 CUTE 1 49263U 21088D 24221.89999403 .00033120 00000-0 14435-2 0 9993 2 49263 97.4925 287.6185 0012334 251.7434 108.2460 15.22047545157658 TeikyoSat 4 1 49396U 21102B 24221.58638105 .00004669 00000-0 33471-3 0 9990 2 49396 97.4566 264.7542 0015269 97.4947 262.8015 15.04733685150634 Z-Sat 1 49399U 21102E 24221.86654241 .00009177 00000-0 57983-3 0 9996 2 49399 97.4274 266.7099 0021678 78.8325 281.5340 15.09068441150934 KOSEN 1 1 49402U 21102H 24221.66459034 .00011677 00000-0 67302-3 0 9996 2 49402 97.4199 268.1511 0019882 63.8994 296.4280 15.12374540151078 HO-113 1 50466U 21131B 24221.87486228 .00001575 00000-0 51641-3 0 9993 2 50466 98.5276 306.7007 0003572 344.5770 15.5309 14.39783274137585 IRIS-A 1 51044U 22002BN 24221.73754701 .00035495 00000-0 10717-2 0 9999 2 51044 97.3802 288.1413 0006027 193.2660 166.8425 15.34160869142477 OreSat0 1 52017U 22026K 24221.53966368 .00176907 00000-0 17927-2 0 9992 2 52017 97.4895 238.5736 0008018 53.0414 307.1578 15.64647912133864 Planetum 1 1 52738U 22057G 24221.30679503 .00073581 00000-0 14448-2 0 9992 2 52738 97.5704 349.5438 0004521 307.9163 52.1677 15.47049805122619 Foresail-1 1 52766U 22057AL 24221.33775586 .00033045 00000-0 98603-3 0 9991 2 52766 97.5879 348.1797 0008381 305.6634 54.3828 15.34534169122443 SNUGLITE 2 1 52899U 22065F 24221.86044806 .00003438 00000-0 70878-3 0 9996 2 52899 98.1269 2.0117 0007457 357.7943 2.3224 14.61080022111956 IO-117 1 53106U 22080B 24220.17464831 -.00000003 00000-0 00000-0 0 9995 2 53106 70.1402 174.8068 0007673 95.8653 264.2881 6.42557506 48546 SelfieSat 1 53951U 22057BC 24221.85364749 .00313151 00000-0 23055-2 0 9997 2 53951 97.5675 355.4827 0007599 281.7313 78.3097 15.72105451123015 FO-118 1 54684U 22167C 24221.91541993 .00049118 00000-0 14960-2 0 9992 2 54684 97.6110 8.1406 0009181 317.1017 42.9508 15.33785586 92371 SSS-2B 1 56184U 23054G 24221.87035159 .00067831 00000-0 13912-2 0 9990 2 56184 97.3602 120.4571 0005096 19.4346 340.7096 15.45799689 74261 CIRBE 1 56188U 23054L 24221.66574006 .00156986 00000-0 17053-2 0 9990 2 56188 97.3510 123.2346 0002412 89.2949 270.8586 15.62966641 74458 INSPIRE-Sat 7 1 56211U 23054AK 24221.68167829 .00203310 00000-0 18284-2 0 9991 2 56211 97.3519 124.7688 0000909 122.3507 237.7842 15.67593978 74548 RoseyCubesat 1 1 56212U 23054AL 24221.58621698 .00358002 00000-0 20387-2 0 9996 2 56212 97.3508 126.0158 0003218 142.4630 217.6862 15.77966932 74612 SO-120 1 56992U 23084BU 24221.57776976 .00053729 00000-0 17289-2 0 9998 2 56992 97.5354 341.6494 0011841 199.3123 160.7671 15.31978769 64194 MRC-100 1 56993U 23084BV 24221.85736353 .00068248 00000-0 20030-2 0 9995 2 56993 97.5349 342.5297 0010973 198.3723 161.7125 15.34847597 64282 UmKA 1 (RS40S) 1 57172U 23091G 24221.88687578 .00010966 00000-0 70780-3 0 9992 2 57172 97.6077 273.4149 0015098 304.0782 55.9013 15.08346986 61434 CubeBel-2 (EU11S) 1 57175U 23091K 24221.87567852 .00013829 00000-0 86939-3 0 9990 2 57175 97.6078 273.4182 0013366 317.4249 42.5942 15.09276210 61433 VERONIKA 1 58261U 23174F 24221.78194529 .00032490 00000-0 13541-2 0 9999 2 58261 97.4570 296.1563 0012039 64.3438 295.9041 15.23573040 41714 KAFASAT 1 58317U 23174BP 24221.80479244 .00045343 00000-0 16741-2 0 9990 2 58317 97.4516 296.9979 0010054 41.3644 318.8354 15.27563919 41781 ENSO 1 58470U 23185J 24221.85169121 .00030682 00000-0 12128-2 0 9992 2 58470 97.4224 288.0806 0013319 96.3749 263.9006 15.25351065 38168 EIRSAT-1 1 58472U 23185L 24221.86745103 .00034663 00000-0 13365-2 0 9992 2 58472 97.4217 288.1880 0012735 97.4432 262.8254 15.26160926 38176 SO-121 1 58567U 23174CY 24220.75976565 .00086787 00000-0 24078-2 0 9997 2 58567 97.4496 296.8683 0008451 51.4309 308.7691 15.36552711 41683 SONATE-2 1 59112U 24043Q 24221.86053444 .00019348 00000-0 89631-3 0 9991 2 59112 97.4842 345.1934 0015530 109.9720 250.3189 15.20028270 23803 KASHIWA 1 59508U 98067WH 24221.71558540 .01929415 32118-2 19133-2 0 9990 2 59508 51.6147 38.7727 0012938 276.1476 83.8064 16.11165042 18806 MESAT1 1 60209U 24125G 24221.83954437 .00019793 00000-0 91055-3 0 9997 2 60209 97.3186 73.6546 0027676 137.2981 223.0412 15.20020936 5415 GRBBeta 1 60237U 24128C 24221.92122231 .00007585 00000-0 66868-3 0 9990 2 60237 61.9945 57.6446 0011646 306.0960 53.9049 14.97136477 4494 ROBUSTA-3A 1 60243U 24128J 24221.87697571 .00011913 00000-0 10676-2 0 9990 2 60243 61.9921 57.9675 0013003 278.2404 81.7209 14.96094277 4491 CatSat 1 60246U 24125J 24221.65745011 .00014390 00000-0 65250-3 0 9990 2 60246 97.3010 74.7763 0054253 92.7985 267.9462 15.19586772 3508 /EX